Probability
0 0 0 0 0 0 0 0 0 1 3 6 7 6 8 10 10 7 5 5 6 6 5 3 4 6 10 13 13 14 18 20 19 17 16 16 16 16 15 13 12 12 11 10
0 0 0 0 0 0 0 0 0 0 2 4 5 6 8 9 8 5 4 5 5 6 6 6 6 7 10 12 12 13 17 20 19 17 16 16 16 16 15 14 13 13 11 10
0 0 0 0 0 0 0 0 0 0 1 2 3 5 7 8 6 4 4 5 5 5 6 8 7 7 9 10 10 11 15 20 20 18 16 16 17 17 16 16 16 15 13 11
0 0 0 0 0 0 0 0 0 0 1 2 3 4 5 6 6 5 5 5 4 5 6 7 7 7 8 8 8 9 12 17 20 18 16 17 18 18 17 17 17 16 13 11
0 0 0 0 0 0 0 0 0 0 0 1 3 3 3 4 5 6 7 7 6 6 7 8 7 7 8 9 8 8 9 13 15 16 16 17 18 18 17 17 15 14 13 12
0 0 0 0 0 0 0 0 1 1 1 1 3 4 4 4 4 6 8 9 9 9 10 10 9 9 9 10 8 8 9 10 11 12 14 16 16 16 16 16 14 13 12 11
0 0 0 1 1 1 1 2 2 2 2 3 4 5 6 5 5 7 9 10 11 12 13 12 10 10 11 11 10 10 10 10 10 10 12 14 15 15 15 16 15 13 12 11
0 0 1 2 2 2 3 3 3 3 3 3 4 5 6 5 6 9 10 11 11 13 14 14 13 12 12 13 13 12 12 11 11 12 13 14 15 14 14 15 14 13 11 10
0 1 2 3 3 3 3 3 3 3 3 3 3 3 3 3 6 10 10 10 10 11 13 15 14 14 14 14 14 14 15 14 14 14 15 16 16 14 13 13 12 11 10 8
0 1 2 2 2 1 1 2 3 3 3 3 3 3 2 2 4 8 9 8 8 8 11 13 13 13 14 14 14 15 16 16 15 16 16 17 17 15 13 12 11 11 10 8
0 0 1 1 1 0 0 1 1 2 3 3 3 3 3 3 4 6 8 7 6 6 8 9 9 9 11 12 13 14 14 14 14 15 16 17 17 15 12 10 9 9 9 9
0 0 0 0 1 1 1 0 0 1 2 3 3 4 3 4 4 5 6 7 6 5 5 5 5 5 5 8 10 10 11 11 11 11 13 14 15 13 9 7 5 4 5 6
0 0 0 1 2 2 2 1 0 0 1 3 4 4 3 3 3 4 6 7 5 4 3 3 3 2 2 3 5 6 7 8 8 7 9 10 11 11 9 5 2 1 1 2
0 0 0 1 2 3 2 1 0 0 1 3 3 3 3 2 1 3 5 6 4 2 2 2 2 3 2 1 2 3 3 4 5 5 5 6 7 9 9 6 4 2 1 0
0 0 0 1 2 3 2 1 0 1 2 3 3 3 2 1 1 1 2 3 3 2 1 1 2 2 2 1 1 1 1 1 2 2 2 2 2 4 6 7 5 3 2 1
0 0 0 1 2 2 1 0 0 1 2 3 3 2 1 1 1 0 1 2 3 2 2 1 1 1 1 1 0 0 0 0 0 0 0 0 0 1 3 5 5 3 2 1
0 0 0 0 1 1 0 0 0 1 3 3 3 2 1 0 0 0 1 2 3 3 2 1 0 0 0 0 0 0 0 0 0 0 0 0 0 0 1 3 3 2 1 1
0 0 0 0 0 0 0 0 1 2 3 3 3 2 1 1 0 0 1 3 3 3 2 1 0 0 0 0 0 0 0 0 1 1 1 0 0 0 1 2 3 2 1 2
0 0 1 1 1 0 0 1 2 3 3 3 2 2 2 2 1 1 2 2 2 2 2 1 0 0 0 0 0 0 0 0 1 2 2 1 0 0 1 3 4 2 2 3
0 0 1 2 1 1 1 2 3 3 2 1 2 2 3 3 2 1 1 1 1 1 1 1 0 0 0 0 0 0 0 0 1 2 3 1 0 1 3 5 5 4 2 1
0 0 1 1 1 1 2 3 3 3 2 1 2 3 3 2 1 1 0 0 0 0 1 1 0 0 0 0 0 0 0 0 1 2 3 2 1 1 3 6 6 5 3 1
0 0 0 0 0 1 1 2 3 3 3 3 3 3 2 1 0 0 0 0 0 0 0 0 0 0 0 0 0 0 0 0 1 3 3 2 1 1 4 6 5 4 3 2
0 0 0 0 0 0 0 1 2 2 2 2 2 2 1 0 0 0 0 0 0 0 0 0 0 0 0 0 1 1 1 1 2 3 3 2 1 1 4 5 4 3 3 2
0 0 0 0 0 0 0 0 1 1 1 1 1 1 0 0 0 0 0 0 0 0 0 0 0 0 0 0 1 2 3 3 3 2 1 1 0 1 3 4 3 3 2 1
0 0 0 0 0 0 0 0 0 0 0 0 0 0 0 0 0 0 0 0 0 0 0 0 0 0 0 0 1 2 3 2 2 1 0 0 0 1 3 3 2 1 1 0
0 0 0 0 0 0 0 0 0 0 0 0 0 0 0 0 0 0 0 0 0 0 0 0 0 0 0 0 1 1 1 1 1 0 0 0 0 1 2 2 1 0 0 0
0 0 0 0 0 0 0 0 0 0 0 0 0 0 0 0 0 0 0 0 0 0 0 0 0 0 0 0 0 1 0 0 0 0 0 0 0 1 1 1 0 0 0 0
Wind_Speed
8 7 7 8 8 9 10 11 12 9 9 6 4 3 2 2 2 2 2 1 1 1 1 2 1 1 2 2 1 2 2 2 3 3 4 4 3 4 4 4 5 5 5 5
9 8 9 10 10 10 10 11 11 11 9 5 4 3 2 2 3 3 2 2 2 2 2 2 1 2 2 2 2 2 2 2 2 3 3 3 3 3 4 4 4 4 5 5
9 7 9 11 8 9 9 8 9 10 6 3 4 4 3 2 3 3 3 3 2 2 2 2 1 2 2 2 2 2 3 3 2 3 3 4 3 3 3 4 3 4 4 4
7 7 12 2 2 5 8 7 7 6 4 4 4 3 2 2 2 3 3 3 2 2 2 1 1 1 2 1 2 2 3 3 2 3 3 3 3 3 3 3 3 3 3 4
7 9 8 4 2 3 6 6 4 5 4 4 3 3 2 0 2 3 3 3 3 2 2 1 1 1 1 1 1 1 2 2 2 3 3 4 3 3 2 2 3 3 3 3
8 10 8 1 1 2 6 7 1 2 3 3 3 5 1 0 2 2 2 2 2 2 2 1 1 1 1 1 1 2 2 2 2 2 3 3 3 3 2 2 3 3 3 3
9 9 5 1 1 3 6 2 2 1 2 2 3 4 3 1 2 1 0 2 2 2 2 1 1 1 1 1 1 2 2 1 1 2 3 3 3 3 3 2 2 3 3 3
7 8 4 2 2 3 3 3 1 2 2 2 2 2 1 1 1 1 0 1 1 2 2 1 1 1 1 1 1 1 1 2 2 2 2 2 2 2 2 2 3 3 3 3
4 3 2 1 1 1 2 2 1 1 1 2 2 1 1 1 1 1 0 1 1 1 2 1 1 1 1 1 1 1 1 2 2 2 2 2 3 3 3 3 3 3 2 2
5 5 3 2 2 2 2 2 2 1 1 1 1 1 1 1 1 1 0 1 1 1 1 1 1 0 0 1 1 1 2 2 2 3 3 2 2 3 2 2 3 3 3 2
7 5 4 3 2 2 2 2 2 2 2 2 2 1 1 1 1 1 0 1 1 1 1 1 1 1 1 1 0 1 1 1 2 2 2 2 2 1 2 1 1 3 2 2
5 2 4 2 1 2 2 2 2 2 3 3 2 2 1 1 1 1 1 1 1 1 1 1 1 2 2 2 1 0 1 1 1 1 1 2 2 1 1 1 1 2 2 2
5 5 5 3 3 3 3 3 3 3 3 2 2 2 1 1 1 1 1 1 1 1 0 0 1 1 2 2 1 1 1 1 1 1 2 2 2 2 1 2 2 3 4 3
4 5 5 4 3 3 3 3 3 3 3 2 2 1 1 0 1 1 1 1 1 1 0 0 1 1 2 2 2 1 2 1 1 2 2 2 2 2 2 2 2 2 4 6
4 5 4 3 3 3 3 3 3 3 3 3 2 2 2 2 1 1 1 1 1 1 0 0 1 2 2 2 1 2 2 1 1 2 2 2 2 2 2 2 2 2 1 4
5 4 4 4 4 3 3 3 3 3 2 2 2 2 2 2 2 1 2 2 1 1 1 1 1 2 2 2 2 2 1 2 2 2 2 1 1 2 1 2 2 2 2 1
6 5 5 5 4 3 3 3 3 2 2 2 2 2 2 2 2 2 2 2 1 1 1 1 1 2 1 2 3 2 2 0 1 3 2 2 2 2 2 2 2 2 2 1
5 5 4 4 4 4 3 3 3 2 2 2 2 2 2 2 2 2 2 1 1 1 1 1 2 2 2 2 2 3 2 2 1 1 2 2 2 2 2 2 2 2 2 0
4 4 4 4 4 4 4 3 3 2 2 2 2 2 2 2 2 2 2 1 1 2 1 1 1 3 2 2 3 3 2 2 2 1 2 1 2 2 2 2 2 2 2 2
4 4 4 3 4 4 3 3 3 3 3 3 3 2 2 2 2 2 2 2 2 2 2 1 2 2 3 2 4 3 3 3 2 2 2 2 2 2 2 2 2 2 2 2
3 3 3 3 3 3 3 4 4 3 3 3 3 3 3 2 2 2 3 2 1 2 2 2 2 2 2 2 3 4 3 3 3 2 2 2 2 2 2 3 2 2 2 2
3 3 4 4 3 3 3 3 3 3 3 3 3 3 3 3 3 3 3 2 1 1 2 2 2 1 2 3 3 3 3 3 3 2 2 2 2 2 2 3 3 3 2 2
3 3 4 4 3 3 3 3 3 3 3 3 3 3 3 3 3 2 2 2 2 2 3 2 1 1 2 4 3 3 3 3 3 3 2 2 2 2 2 3 3 3 3 3
3 3 3 3 3 3 3 3 3 2 3 3 3 3 3 3 3 2 2 2 2 2 3 0 1 1 4 4 3 3 3 3 3 3 3 2 2 2 2 3 3 3 3 3
3 3 3 3 4 3 3 4 4 4 4 3 3 4 4 3 2 2 2 2 1 3 3 3 5 4 4 3 3 3 3 2 3 3 3 3 3 2 2 3 3 3 3 3
2 3 2 3 2 2 3 3 3 2 2 2 3 2 2 2 2 2 2 3 3 3 4 2 2 4 4 4 3 3 3 2 3 3 3 3 3 3 3 3 4 3 3 3
3 3 2 2 2 2 2 2 2 2 2 2 2 2 2 2 2 2 3 3 2 3 3 3 2 3 3 3 2 2 3 3 4 3 3 3 3 3 3 4 4 3 3 3
Wind_Direction
264 276 272 266 260 253 254 267 275 281 282 293 301 282 247 201 184 189 184 178 203 228 243 254 249 256 276 280 269 246 229 221 219 217 218 207 206 210 201 202 199 197 200 200
249 247 254 257 257 256 256 261 266 271 273 306 307 290 257 222 210 207 195 214 219 223 245 255 256 255 259 270 259 248 233 222 213 206 202 195 189 195 191 193 200 201 202 202
255 243 250 246 251 254 255 260 269 271 284 307 288 276 268 244 229 222 219 222 225 226 236 244 249 258 255 259 260 255 242 231 221 210 195 194 185 176 181 183 186 199 206 205
259 245 249 274 0 282 270 263 269 282 299 300 292 281 280 274 252 230 228 223 225 235 245 252 248 252 272 258 242 238 234 223 213 207 192 182 179 175 186 183 183 193 204 209
253 251 252 225 232 264 267 257 263 271 285 298 298 244 215 219 265 249 234 226 232 235 231 244 243 236 270 272 241 232 229 222 204 205 190 181 177 176 182 196 197 198 196 202
249 260 268 285 54 300 263 246 214 268 278 287 272 260 273 50 277 262 242 210 208 205 199 212 236 235 239 256 268 256 243 228 211 213 204 192 184 189 193 204 204 211 198 204
251 255 261 41 86 221 246 330 57 292 278 271 279 318 1 320 297 281 180 158 167 175 180 181 209 220 229 253 273 292 285 244 215 218 218 204 188 190 196 209 207 214 205 209
246 253 251 108 184 247 333 3 305 275 266 281 306 322 328 325 336 346 139 139 149 152 142 135 163 188 213 246 284 280 270 241 221 229 237 204 197 195 194 210 210 207 206 214
250 272 30 217 268 337 326 313 302 272 282 268 264 283 353 344 335 352 75 116 145 142 118 116 142 173 217 253 250 234 228 222 214 216 235 232 218 208 204 206 220 217 215 219
248 241 236 248 264 267 279 289 288 267 237 236 247 269 309 300 298 323 176 162 183 171 122 91 74 64 256 243 232 212 215 212 205 204 215 217 226 223 218 219 226 223 226 235
247 257 256 242 266 277 272 262 245 222 212 219 230 244 275 287 282 267 230 197 179 169 108 74 47 17 3 345 268 213 212 217 217 203 195 213 221 253 250 245 273 266 259 259
279 295 275 287 279 286 263 246 241 227 214 213 218 238 266 286 286 259 210 164 145 118 93 48 28 11 7 3 336 254 212 218 231 215 195 207 196 175 85 283 200 240 281 286
285 293 293 293 279 273 259 251 232 219 221 229 234 235 241 254 239 211 189 170 148 139 120 65 10 6 7 1 347 315 299 290 258 247 221 218 219 219 195 167 195 218 217 216
277 278 269 266 268 263 261 257 237 221 222 227 231 226 229 167 139 158 165 161 159 169 171 72 18 359 346 345 331 317 301 327 287 258 255 243 236 238 236 228 211 214 200 195
266 261 260 257 249 241 240 237 221 211 211 209 199 196 179 155 147 149 143 158 164 181 195 332 350 348 328 317 314 301 298 311 300 303 291 281 268 265 264 258 264 256 222 168
260 248 243 236 226 217 219 219 223 219 205 193 189 183 174 164 168 166 165 177 185 205 245 289 315 327 320 306 288 270 282 1 322 309 302 306 298 296 298 282 273 275 272 256
253 242 234 229 224 225 229 231 229 208 186 179 178 173 172 177 182 177 177 174 186 223 235 259 287 303 316 307 290 286 291 159 198 278 299 314 305 300 303 294 288 287 291 334
247 251 243 235 236 234 231 221 211 199 187 182 172 174 184 197 203 192 190 176 193 236 264 280 293 289 297 305 291 291 301 313 311 311 308 309 308 292 286 291 298 304 308 232
244 247 244 237 234 231 225 214 205 196 191 184 182 191 198 207 213 208 199 217 243 258 284 305 288 271 278 294 289 265 278 289 293 301 297 304 274 280 288 289 295 299 302 310
245 246 244 232 226 222 218 209 202 197 200 202 200 199 201 207 210 207 207 226 256 287 293 296 272 272 276 274 277 274 275 279 289 297 294 295 296 296 295 295 296 297 298 304
243 241 236 230 221 215 209 202 197 197 197 198 200 203 204 204 209 224 233 236 242 275 273 246 252 274 276 295 254 271 277 283 291 297 300 299 300 299 302 303 301 296 292 294
247 237 227 219 206 196 193 189 186 187 190 197 202 203 205 214 222 228 238 256 244 208 249 252 258 326 320 294 266 270 274 281 288 293 301 308 302 292 297 300 298 297 290 296
261 246 229 216 200 186 181 183 185 192 199 199 200 206 218 239 254 252 247 238 230 199 239 261 346 24 280 259 269 275 280 280 283 287 289 295 293 287 291 293 292 291 294 298
255 244 223 204 195 191 192 193 194 205 209 217 219 221 227 228 230 240 252 187 209 223 245 154 129 212 244 256 267 275 276 274 277 281 286 289 286 283 287 288 286 281 287 294
236 225 211 206 205 203 195 197 196 198 205 207 214 219 225 231 239 245 261 254 190 217 237 179 180 212 241 256 256 260 265 279 293 297 296 295 289 283 282 286 290 294 294 293
227 224 211 217 222 222 211 211 206 198 208 213 218 219 222 220 232 238 241 244 226 230 252 236 201 214 243 247 247 253 261 251 248 263 279 280 284 289 287 291 295 296 298 301
212 204 201 205 195 201 207 211 216 215 218 225 234 237 232 216 215 220 232 240 231 231 241 240 231 233 243 249 247 251 263 271 271 269 267 267 274 280 285 287 291 294 295 297